RH
25 25 18 12 12 12 12 12 12 12 12 12 11 11 12 15 19 23 27 29 32 34 36 37 39 40 39 39 39 40 40 41 42 42 41 42 42 41 42 42 43 44 47 48 49 54 57 62 66 61 60 60 59 58 57 57 56 60 69 70 70 74 72 66 66 67 69 71 72 72 72 71 71 71 73 74 73 71 71 69 64 60 55 52 51 50 45 37
23 25 22 15 12 12 12 12 12 12 12 12 11 11 12 16 21 25 28 30 32 34 36 37 38 39 38 39 40 40 41 41 42 41 40 41 42 43 44 45 47 48 50 52 55 58 59 63 64 62 61 60 59 57 57 57 57 64 70 68 68 70 68 64 63 64 66 69 72 73 73 71 70 70 70 73 73 69 68 64 58 52 48 45 43 40 33 27
21 23 23 18 13 12 13 12 12 12 12 12 11 11 12 17 22 26 29 31 33 35 36 37 38 38 38 38 39 41 42 42 42 42 41 41 44 46 47 49 52 54 55 55 58 61 61 62 62 61 62 60 58 56 56 57 58 61 65 67 65 65 66 65 63 62 63 67 72 74 73 70 67 66 67 70 69 63 60 54 48 44 41 38 34 30 25 20
20 21 23 22 15 12 13 12 12 12 12 12 11 12 13 17 22 27 30 32 33 35 37 38 37 37 37 37 39 40 41 44 43 42 44 44 47 49 49 51 53 56 57 57 59 60 61 60 59 61 62 61 57 55 59 61 58 56 61 64 60 60 65 65 62 61 64 67 71 73 71 68 65 63 62 61 60 55 49 42 38 36 34 31 29 26 21 14
20 19 21 23 18 13 12 12 11 11 11 11 11 12 14 17 21 26 29 32 33 35 36 37 37 36 35 35 37 37 40 44 42 42 46 48 50 50 49 51 53 55 56 57 58 59 59 59 58 61 62 61 60 60 62 60 57 55 59 61 57 61 66 65 63 62 64 67 70 71 68 66 63 61 58 54 51 47 39 32 30 28 27 27 25 23 20 17
20 19 19 22 21 15 12 12 11 11 11 11 11 12 14 17 20 24 27 31 33 34 35 36 36 35 35 34 34 36 40 43 41 43 47 49 50 50 48 50 52 54 54 57 58 56 56 58 58 58 60 60 61 63 61 57 56 58 59 58 59 62 63 64 64 63 64 66 67 65 63 62 60 59 55 48 44 38 30 26 25 24 24 24 23 22 21 21
21 19 18 20 21 17 13 12 11 11 11 10 11 13 15 18 22 25 27 31 33 34 34 34 34 33 33 33 33 35 40 41 41 44 46 48 50 50 49 49 51 52 53 56 57 55 52 55 56 55 59 61 59 59 58 55 56 59 58 56 58 60 59 60 62 63 64 63 62 60 58 57 57 54 48 41 37 33 28 25 24 24 23 22 21 22 22 21
22 20 18 19 20 18 15 13 12 10 10 10 10 13 16 19 24 27 29 31 32 32 32 31 31 31 31 32 33 35 38 39 42 46 48 48 48 49 49 48 51 51 52 53 53 52 50 53 56 55 58 58 58 57 55 55 57 57 57 55 58 60 59 59 60 60 60 59 58 57 56 54 52 47 40 35 33 30 27 25 24 22 21 21 21 22 22 22
21 20 19 18 19 19 16 14 12 10 10 9 10 13 17 20 25 28 29 30 31 30 30 29 29 29 30 31 33 35 35 36 42 47 48 47 45 45 45 45 47 47 49 49 46 48 49 51 54 54 55 54 55 57 54 57 58 56 56 56 59 62 61 61 60 57 56 57 56 55 53 50 45 42 40 33 29 27 26 26 25 22 22 21 21 22 22 21
22 21 20 18 19 18 17 15 13 11 10 9 9 12 17 21 25 28 29 30 30 29 29 29 29 29 29 30 33 35 33 34 41 45 46 46 43 41 41 42 43 41 42 45 44 46 48 49 49 50 51 51 54 54 52 55 54 52 54 56 58 62 62 62 60 57 55 54 55 54 52 49 44 44 44 34 29 28 28 30 26 24 24 23 23 23 23 22
22 22 21 19 19 18 16 16 15 12 10 10 9 11 16 21 25 27 28 29 28 28 29 29 29 29 29 29 33 35 33 37 42 44 45 44 42 39 38 38 40 40 40 42 44 46 47 47 48 49 50 51 53 54 52 50 50 50 52 54 58 60 60 60 60 57 56 56 57 55 52 50 48 46 43 35 31 31 30 30 28 27 27 27 28 24 23 24
22 23 22 20 19 18 16 15 16 13 10 10 8 10 15 21 25 27 27 27 27 27 28 29 28 28 28 28 30 32 35 40 42 43 44 43 42 41 39 38 40 43 43 44 46 48 49 49 49 49 50 50 53 55 53 51 52 53 52 54 57 60 61 60 59 57 57 57 55 54 53 50 48 45 41 38 35 33 32 32 30 29 30 32 33 28 26 25
22 23 23 21 20 19 16 15 16 15 11 10 9 9 14 20 24 25 25 26 27 28 28 27 27 27 28 28 28 31 35 40 43 43 42 43 43 43 43 43 45 47 47 48 50 50 50 49 49 49 50 51 53 55 54 51 51 52 52 54 57 59 61 60 58 55 53 53 50 51 53 47 44 43 42 41 38 37 38 38 35 31 32 35 36 33 29 28
22 23 23 22 20 20 17 14 15 16 13 10 9 9 14 20 22 23 24 25 27 29 28 27 27 27 27 28 28 31 34 38 42 42 42 43 44 45 46 47 47 49 49 49 51 51 50 50 49 50 52 53 53 55 56 55 53 54 53 54 59 60 59 58 59 55 50 50 47 49 51 45 43 44 43 43 40 40 41 41 39 34 34 36 37 36 33 33
23 22 23 22 21 20 18 15 14 16 15 11 9 9 14 19 21 22 23 25 27 28 28 27 26 26 27 27 28 31 33 35 38 40 43 43 43 45 47 46 48 49 49 50 51 51 51 51 52 55 56 54 55 59 62 62 61 63 59 56 58 58 57 58 58 55 49 47 44 45 50 47 45 45 44 43 39 40 42 43 42 38 37 39 38 37 37 36
25 23 23 23 22 21 19 16 14 15 15 13 9 9 14 19 21 21 22 24 26 26 26 26 26 26 27 27 27 29 31 33 35 38 41 41 42 46 46 45 48 50 50 51 52 52 50 50 52 57 58 57 61 64 65 66 64 64 64 61 59 57 57 59 57 54 48 42 41 43 49 49 45 44 45 44 40 42 45 44 44 43 41 41 38 36 35 35
27 24 23 23 22 21 20 17 15 14 14 14 11 10 14 19 20 21 22 23 24 24 25 25 25 25 26 26 26 27 29 30 33 37 39 40 43 45 45 47 49 51 51 51 52 52 51 51 53 56 59 63 68 67 65 67 64 61 63 62 59 56 57 58 56 54 45 39 41 45 51 52 45 43 46 46 43 45 47 45 45 45 43 41 39 36 33 33
27 25 23 23 23 22 21 19 15 14 13 14 13 11 13 17 19 20 20 21 22 23 24 25 25 25 26 25 26 26 27 29 32 36 39 42 45 44 45 50 50 49 51 51 50 50 50 51 54 58 62 65 68 66 63 64 64 63 63 60 56 56 57 56 56 55 46 41 44 48 52 53 48 43 44 46 47 47 47 46 45 45 44 40 38 36 34 33
27 27 24 23 24 22 22 20 16 14 14 15 15 13 13 15 18 18 19 20 21 21 23 25 26 25 24 24 25 26 27 31 34 35 38 42 46 45 45 48 47 47 50 52 51 50 52 54 55 58 61 63 63 61 59 58 59 62 62 58 55 57 58 55 54 53 47 45 47 48 49 51 49 43 40 42 45 46 46 45 44 45 44 39 36 35 33 35
27 27 25 23 24 22 22 21 17 16 17 17 17 17 16 16 19 20 19 20 21 22 22 23 24 23 21 22 24 26 29 32 34 36 39 42 45 46 44 44 44 46 50 53 52 49 53 58 57 58 59 60 61 59 56 55 55 59 60 56 53 55 56 51 47 47 47 49 49 47 46 48 48 41 37 39 42 44 45 43 43 44 43 38 35 34 34 37
28 27 25 24 24 23 23 22 19 18 18 18 19 19 19 18 20 22 21 19 19 21 22 21 22 22 20 20 23 26 28 29 32 35 39 41 44 44 42 43 45 46 49 51 51 50 54 56 53 54 56 56 57 57 55 53 54 57 56 54 52 52 52 48 46 47 50 53 51 47 46 47 48 41 36 37 39 41 40 40 42 44 43 40 36 35 37 40
29 27 26 24 23 23 23 23 21 20 19 19 20 20 21 20 21 23 22 20 18 19 21 20 20 21 20 20 22 25 27 27 27 30 35 38 41 42 40 43 45 45 47 49 51 53 55 54 50 50 52 51 52 53 53 51 53 56 54 55 53 49 48 46 49 52 52 54 52 47 45 46 46 41 36 35 36 36 35 37 39 41 43 42 40 38 40 43
30 28 26 24 24 23 23 25 23 20 19 20 20 20 21 22 22 22 21 21 20 18 19 20 19 20 20 21 21 22 25 26 25 26 31 34 37 40 39 42 44 43 46 49 50 50 51 53 50 48 49 51 51 51 52 52 53 56 57 59 55 51 52 51 51 51 49 50 49 46 45 45 44 41 37 35 35 35 35 36 38 40 40 42 42 41 44 47
32 30 27 24 24 23 24 26 25 22 21 21 21 21 22 24 23 21 21 23 21 18 18 19 19 19 19 20 21 21 23 25 24 25 28 30 33 37 36 40 45 44 44 47 48 47 48 49 47 46 49 52 52 51 52 54 54 56 60 60 56 52 54 54 52 53 51 50 49 49 51 50 48 45 40 37 37 38 40 41 42 43 44 45 46 46 47 49
33 32 29 25 23 23 25 27 26 24 23 21 22 22 23 24 24 22 24 27 23 19 18 18 18 18 18 19 19 20 22 24 23 23 26 28 31 34 34 37 43 45 44 46 47 47 48 45 43 46 49 52 54 53 54 55 56 59 59 58 57 56 56 55 55 59 60 57 54 56 58 56 55 52 46 46 45 45 50 51 50 50 52 52 53 52 51 52
33 33 31 27 24 23 24 26 27 26 25 22 21 22 24 23 24 24 27 31 29 21 19 20 19 18 18 18 18 19 22 23 22 24 27 29 31 33 33 34 39 44 45 45 45 45 46 44 43 47 48 53 56 53 53 55 58 59 55 55 59 60 60 59 60 61 62 61 58 58 59 59 61 59 55 54 52 51 56 58 57 57 58 57 56 55 54 55
34 34 33 30 26 23 24 25 26 27 26 23 21 22 22 21 22 24 27 33 34 25 20 21 19 18 19 18 18 21 23 22 22 24 27 30 31 32 33 33 35 39 40 41 41 39 42 43 42 45 48 52 54 52 52 55 58 55 52 55 58 59 60 59 60 62 62 62 60 60 59 59 61 60 58 56 53 53 56 57 58 58 57 57 57 56 55 57
36 34 34 33 28 25 24 24 25 26 26 25 23 21 20 20 22 25 28 32 31 25 20 19 18 17 19 18 19 22 22 22 21 22 24 28 30 30 33 34 33 36 37 38 38 35 37 41 41 44 48 49 50 50 50 53 56 52 51 55 56 56 58 58 58 61 63 62 59 60 60 60 62 61 60 59 53 52 55 55 55 54 54 57 58 55 55 58
39 36 35 34 31 27 24 24 27 27 26 25 23 21 19 20 23 27 35 35 28 24 21 18 17 17 17 18 18 19 19 20 21 21 22 26 29 30 34 35 34 37 38 38 39 34 33 37 38 42 46 46 47 46 45 50 53 50 50 53 55 56 58 59 59 59 63 63 59 58 60 61 62 60 61 59 53 55 58 58 57 52 51 54 55 54 56 58
42 39 36 35 34 30 25 24 27 28 27 25 23 22 20 24 28 28 32 35 30 26 23 19 18 17 17 17 16 17 18 19 19 20 23 27 30 30 32 34 34 39 40 40 41 36 33 34 33 36 42 44 44 42 44 47 48 48 50 52 54 57 59 63 64 61 63 65 59 57 59 60 60 58 59 57 52 56 59 57 55 50 49 52 53 52 55 55
45 42 39 36 35 33 28 25 26 27 27 27 25 23 21 26 33 32 29 31 32 28 22 19 18 17 17 17 16 16 17 17 17 20 25 28 30 30 31 32 35 40 42 42 42 39 37 35 31 32 38 42 43 44 47 47 47 49 51 52 52 55 59 63 65 64 65 64 58 58 59 59 59 58 57 54 51 54 55 51 48 47 48 51 52 51 53 54
47 45 43 39 36 36 32 26 25 25 26 27 24 24 27 28 30 32 30 31 34 30 22 20 20 18 18 17 17 17 16 17 18 21 25 26 28 31 31 32 37 41 42 42 42 41 41 36 32 33 35 37 42 47 48 47 50 51 51 54 56 56 59 61 62 63 64 61 57 58 58 55 57 56 53 52 51 51 50 47 44 43 46 48 49 50 51 53
49 48 46 42 38 37 34 28 26 25 25 25 24 28 34 32 30 32 32 32 35 31 23 21 21 20 21 21 20 18 17 18 19 20 23 25 26 28 29 29 33 38 40 41 41 43 43 35 31 34 34 30 34 42 45 46 51 51 49 52 57 61 64 63 62 61 59 57 55 56 56 56 57 56 53 52 50 48 46 44 42 42 44 46 46 48 49 51
52 50 48 45 42 38 36 33 29 27 25 24 28 33 33 32 34 34 31 32 34 32 28 26 24 22 22 24 22 19 19 19 18 21 24 25 26 27 28 29 30 35 38 39 40 43 44 38 32 31 33 30 27 32 37 42 46 47 48 50 53 57 61 62 63 62 58 55 55 53 53 56 57 54 52 50 46 45 44 42 42 42 44 45 45 47 48 48
54 52 50 48 45 41 39 38 32 27 24 26 34 38 32 30 35 37 35 34 32 32 34 32 29 25 22 23 22 19 19 20 20 23 25 26 28 29 29 30 30 33 35 36 38 39 39 38 34 31 33 33 29 26 28 34 40 42 43 46 48 50 54 57 59 59 58 56 54 53 52 56 57 52 49 47 43 43 43 42 42 42 44 46 45 46 47 46
56 54 52 50 48 44 43 41 36 29 26 30 37 38 35 33 33 35 36 35 34 34 36 35 32 27 23 24 23 21 20 20 21 22 24 25 27 28 28 29 29 30 33 36 38 38 37 38 37 35 37 37 33 28 27 31 38 40 40 42 46 47 50 53 53 52 54 56 53 53 52 55 57 53 47 44 42 44 44 42 42 42 43 45 45 44 45 44
58 55 54 53 50 47 46 44 38 32 30 32 36 38 40 37 32 32 34 35 37 36 37 38 34 30 28 25 24 24 23 22 20 21 25 26 26 27 28 28 28 28 30 32 34 38 42 42 37 36 38 38 36 35 36 36 38 42 43 43 45 46 48 53 56 55 56 57 54 52 52 52 55 55 49 43 43 44 43 41 40 41 43 44 45 45 43 43
59 59 57 56 54 51 48 46 42 37 34 36 38 41 43 38 32 33 35 35 38 37 37 39 35 33 33 28 26 27 24 23 23 22 25 27 26 26 27 26 27 26 24 26 29 34 40 41 37 35 36 38 38 38 40 40 40 44 45 41 42 46 48 52 57 57 55 56 56 51 50 51 52 53 47 41 42 43 43 43 41 42 44 42 44 45 43 43
59 61 60 58 57 55 51 48 45 41 39 40 40 39 38 36 33 34 35 35 36 37 38 39 36 35 35 29 28 30 26 24 26 25 25 26 26 26 26 26 26 25 24 25 26 31 37 40 39 36 35 37 38 39 40 39 39 44 45 41 42 47 49 49 52 54 52 56 60 52 46 51 52 48 44 40 42 42 41 44 45 45 45 41 40 43 44 43
60 63 64 61 60 58 54 50 46 44 45 45 42 38 36 35 34 35 36 35 37 38 39 38 37 37 35 32 33 33 29 26 25 26 27 26 26 26 26 27 27 27 27 24 23 28 35 38 40 40 39 39 40 40 39 36 35 41 45 43 41 43 46 46 45 48 49 56 65 58 48 51 48 42 41 41 40 40 39 42 44 44 44 42 39 40 42 42
61 66 67 64 62 61 58 54 50 49 49 47 42 37 35 34 35 36 36 37 39 40 39 36 36 37 36 35 36 35 32 29 27 27 27 26 27 28 27 27 28 28 28 26 25 27 30 36 41 42 41 42 42 38 36 34 32 36 41 40 39 40 42 44 42 43 46 50 57 57 50 46 41 37 39 40 39 40 40 41 41 41 42 42 39 38 41 41
60 67 67 66 67 65 62 61 58 52 49 47 42 37 35 34 34 34 36 39 41 40 38 36 35 37 35 35 37 35 34 34 31 29 28 26 28 29 28 27 27 28 29 29 29 28 30 37 41 42 41 39 38 37 37 36 31 31 35 37 39 38 39 45 44 40 41 41 45 49 46 42 41 38 37 38 39 39 39 39 41 41 42 44 41 40 42 42
59 63 65 66 68 68 67 68 64 58 51 48 44 39 36 36 34 33 37 42 41 39 39 38 35 36 36 35 36 36 36 36 34 30 30 29 28 27 28 28 27 29 30 31 31 30 31 34 36 43 48 41 36 39 41 39 33 32 35 38 38 36 38 44 43 38 39 40 42 46 45 44 44 40 36 37 39 40 39 39 41 41 42 45 43 41 43 43
59 58 62 68 69 68 71 72 70 67 59 52 48 44 41 39 36 34 39 43 42 39 39 38 34 35 37 36 35 37 38 38 37 34 33 31 28 28 28 27 28 31 32 32 33 32 31 33 37 46 53 46 40 46 47 42 39 38 39 39 36 35 37 38 38 41 44 43 44 48 48 47 45 40 36 37 39 42 42 40 40 40 41 44 44 41 41 43
65 59 59 67 71 69 72 73 72 70 65 58 54 51 46 42 38 36 41 46 44 40 39 38 34 34 36 36 34 37 39 39 39 37 34 32 31 31 30 30 31 33 34 33 32 33 33 38 43 48 52 50 46 49 49 44 42 41 39 38 35 36 37 35 38 46 48 45 46 48 47 44 43 39 37 39 39 42 44 43 41 41 41 43 45 43 41 44
72 69 64 66 71 70 70 71 70 71 69 64 59 54 50 48 42 39 44 48 44 40 39 38 35 33 36 37 36 39 40 38 37 37 36 34 33 34 34 33 34 34 34 32 30 34 37 38 40 43 48 49 46 46 46 43 42 41 40 39 36 37 39 38 39 45 46 45 45 45 42 41 42 40 39 41 40 40 45 46 43 44 44 44 46 46 45 45
71 75 71 69 73 73 70 70 72 74 73 67 62 57 53 52 48 46 49 49 45 42 40 39 37 35 37 38 39 41 41 39 38 38 38 36 36 37 36 36 38 36 34 32 31 37 40 34 32 36 39 41 41 40 41 40 40 39 39 39 39 39 39 39 40 42 43 43 44 43 43 43 43 43 41 42 42 41 45 46 42 43 45 45 46 47 47 48
63 73 73 72 75 76 74 73 74 76 75 70 66 61 56 54 53 55 55 51 47 44 42 42 41 38 37 38 40 44 44 42 41 41 41 39 38 42 41 39 40 37 34 35 36 42 42 32 28 31 34 39 41 38 38 40 38 37 39 41 41 40 38 38 41 42 42 42 44 45 45 42 42 43 43 43 43 41 43 42 39 40 43 45 47 47 46 48
53 68 75 75 76 77 76 74 73 75 78 76 71 66 61 57 56 58 58 53 50 47 43 43 44 40 37 37 40 45 46 44 43 43 44 42 42 45 45 42 41 37 35 38 39 42 42 35 29 30 33 40 41 38 38 40 39 38 41 43 43 41 40 40 42 43 43 43 43 44 45 42 41 43 43 43 43 41 42 42 38 37 40 44 46 44 42 45
45 61 73 79 79 78 77 76 74 75 78 77 74 70 65 61 58 60 60 56 54 53 47 45 46 42 39 38 39 43 45 43 44 45 44 43 44 45 46 45 43 39 38 40 39 40 42 39 36 33 32 36 38 36 37 38 38 40 42 43 44 44 42 42 43 44 44 44 44 45 44 42 43 44 44 45 44 41 44 45 42 40 40 40 43 42 40 41
38 52 67 77 81 80 78 77 75 76 80 80 78 74 69 65 63 62 61 57 55 56 54 51 50 47 44 44 43 44 44 42 43 46 44 42 42 43 43 43 43 42 41 41 40 42 45 45 43 39 33 33 34 32 34 35 34 37 41 42 43 43 41 41 43 44 46 47 47 46 43 43 45 45 45 45 43 41 44 46 45 44 43 41 42 42 41 42
37 44 57 70 77 79 78 78 76 76 79 80 78 75 71 68 65 63 64 61 57 58 57 54 52 49 48 48 48 47 45 42 42 44 44 43 41 41 40 40 41 42 44 44 43 45 49 48 49 49 44 40 40 36 35 36 34 36 41 41 41 42 41 41 42 44 46 48 48 45 43 44 47 46 45 45 44 43 44 45 45 45 44 42 43 43 43 44